Time,TemperatureF,DewpointF,PressureIn,WindDirection,WindDirectionDegrees,WindSpeedMPH,WindSpeedGustMPH,Humidity,HourlyPrecipIn,Conditions,Clouds,dailyrainin,SoftwareType,DateUTC
2013-03-09 00:02:00,28.4,26.0,30.45,WSW,248,0.0,0.0,89,0.00,,,0.00,weatherlink.com 1.10,2013-03-09 05:02:00,
2013-03-09 00:17:00,28.2,26.0,30.44,WSW,239,1.0,2.0,90,0.00,,,0.00,weatherlink.com 1.10,2013-03-09 05:17:00,
2013-03-09 00:32:00,28.3,26.0,30.45,West,263,0.0,2.0,91,0.00,,,0.00,weatherlink.com 1.10,2013-03-09 05:32:00,
2013-03-09 00:47:00,28.1,26.0,30.45,WSW,257,0.0,1.0,90,0.00,,,0.00,weatherlink.com 1.10,2013-03-09 05:47:00,
2013-03-09 01:02:00,27.8,26.0,30.45,SW,233,0.0,1.0,91,0.00,,,0.00,weatherlink.com 1.10,2013-03-09 06:02:00,
2013-03-09 01:17:00,27.6,25.0,30.45,SW,233,0.0,0.0,91,0.00,,,0.00,weatherlink.com 1.10,2013-03-09 06:17:00,
2013-03-09 01:32:00,27.4,25.0,30.44,SW,233,1.0,1.0,92,0.00,,,0.00,weatherlink.com 1.10,2013-03-09 06:32:00,
2013-03-09 01:47:00,27.2,25.0,30.44,ESE,115,0.0,2.0,91,0.00,,,0.00,weatherlink.com 1.10,2013-03-09 06:47:00,
2013-03-09 02:02:00,26.9,25.0,30.43,East,91,1.0,1.0,92,0.00,,,0.00,weatherlink.com 1.10,2013-03-09 07:02:00,
2013-03-09 02:17:00,26.7,25.0,30.42,East,96,0.0,0.0,91,0.00,,,0.00,weatherlink.com 1.10,2013-03-09 07:17:00,
2013-03-09 02:32:00,26.6,25.0,30.42,East,96,0.0,1.0,92,0.00,,,0.00,weatherlink.com 1.10,2013-03-09 07:32:00,
2013-03-09 02:47:00,26.3,24.0,30.41,East,96,0.0,0.0,92,0.00,,,0.00,weatherlink.com 1.10,2013-03-09 07:47:00,
2013-03-09 03:02:00,26.3,24.0,30.41,ENE,65,0.0,1.0,92,0.00,,,0.00,weatherlink.com 1.10,2013-03-09 08:02:00,
2013-03-09 03:17:00,25.9,24.0,30.41,ENE,65,0.0,1.0,92,0.00,,,0.00,weatherlink.com 1.10,2013-03-09 08:17:00,
2013-03-09 03:32:00,26.1,24.0,30.41,ESE,119,0.0,1.0,93,0.00,,,0.00,weatherlink.com 1.10,2013-03-09 08:32:00,
2013-03-09 03:47:00,25.7,24.0,30.41,ESE,119,0.0,0.0,93,0.00,,,0.00,weatherlink.com 1.10,2013-03-09 08:47:00,
2013-03-09 04:02:00,25.5,24.0,30.41,ESE,119,0.0,0.0,93,0.00,,,0.00,weatherlink.com 1.10,2013-03-09 09:02:00,
2013-03-09 04:17:00,25.5,24.0,30.41,ESE,118,0.0,1.0,93,0.00,,,0.00,weatherlink.com 1.10,2013-03-09 09:17:00,
2013-03-09 04:32:00,25.1,23.0,30.40,East,82,1.0,2.0,93,0.00,,,0.00,weatherlink.com 1.10,2013-03-09 09:32:00,
2013-03-09 04:47:00,24.9,23.0,30.41,East,82,1.0,1.0,93,0.00,,,0.00,weatherlink.com 1.10,2013-03-09 09:47:00,
2013-03-09 05:02:00,24.8,23.0,30.41,East,82,0.0,1.0,93,0.00,,,0.00,weatherlink.com 1.10,2013-03-09 10:02:00,
2013-03-09 05:17:00,24.7,23.0,30.41,East,85,0.0,2.0,93,0.00,,,0.00,weatherlink.com 1.10,2013-03-09 10:17:00,
2013-03-09 05:32:00,24.6,23.0,30.41,East,84,0.0,0.0,93,0.00,,,0.00,weatherlink.com 1.10,2013-03-09 10:32:00,
2013-03-09 05:47:00,24.3,23.0,30.42,East,84,0.0,0.0,93,0.00,,,0.00,weatherlink.com 1.10,2013-03-09 10:47:00,
2013-03-09 06:02:00,24.2,23.0,30.42,ENE,68,0.0,0.0,93,0.00,,,0.00,weatherlink.com 1.10,2013-03-09 11:02:00,
2013-03-09 06:17:00,24.4,23.0,30.42,ENE,68,0.0,0.0,93,0.00,,,0.00,weatherlink.com 1.10,2013-03-09 11:17:00,
2013-03-09 06:32:00,24.3,23.0,30.42,East,86,0.0,0.0,93,0.00,,,0.00,weatherlink.com 1.10,2013-03-09 11:32:00,
2013-03-09 06:47:00,24.1,22.0,30.43,East,86,0.0,0.0,93,0.00,,,0.00,weatherlink.com 1.10,2013-03-09 11:47:00,
2013-03-09 07:02:00,24.1,22.0,30.44,ENE,77,0.0,0.0,93,0.00,,,0.00,weatherlink.com 1.10,2013-03-09 12:02:00,
2013-03-09 07:17:00,25.5,24.0,30.44,ENE,76,0.0,0.0,93,0.00,,,0.00,weatherlink.com 1.10,2013-03-09 12:17:00,
2013-03-09 07:32:00,26.2,24.0,30.44,East,97,0.0,1.0,91,0.00,,,0.00,weatherlink.com 1.10,2013-03-09 12:32:00,
2013-03-09 07:47:00,27.2,24.0,30.44,East,95,3.0,3.0,89,0.00,,,0.00,weatherlink.com 1.10,2013-03-09 12:47:00,
2013-03-09 08:02:00,27.1,24.0,30.44,East,98,2.0,3.0,88,0.00,,,0.00,weatherlink.com 1.10,2013-03-09 13:02:00,
2013-03-09 08:17:00,27.8,25.0,30.44,ESE,108,1.0,2.0,88,0.00,,,0.00,weatherlink.com 1.10,2013-03-09 13:17:00,
2013-03-09 08:32:00,28.2,25.0,30.44,East,101,3.0,3.0,87,0.00,,,0.00,weatherlink.com 1.10,2013-03-09 13:32:00,
2013-03-09 08:47:00,28.4,25.0,30.43,ESE,105,4.0,4.0,87,0.00,,,0.00,weatherlink.com 1.10,2013-03-09 13:47:00,
2013-03-09 09:02:00,29.1,25.0,30.43,ESE,106,5.0,5.0,86,0.00,,,0.00,weatherlink.com 1.10,2013-03-09 14:02:00,
2013-03-09 09:17:00,30.1,26.0,30.43,ESE,105,2.0,4.0,85,0.00,,,0.00,weatherlink.com 1.10,2013-03-09 14:17:00,
2013-03-09 09:33:00,31.4,27.0,30.43,East,97,2.0,3.0,83,0.00,,,0.00,weatherlink.com 1.10,2013-03-09 14:33:00,
2013-03-09 09:48:00,32.5,27.0,30.42,ESE,112,3.0,3.0,81,0.00,,,0.00,weatherlink.com 1.10,2013-03-09 14:48:00,
2013-03-09 10:03:00,33.2,28.0,30.41,ESE,103,3.0,4.0,80,0.00,,,0.00,weatherlink.com 1.10,2013-03-09 15:03:00,
2013-03-09 10:18:00,34.2,27.0,30.41,East,97,4.0,4.0,76,0.00,,,0.00,weatherlink.com 1.10,2013-03-09 15:18:00,
2013-03-09 10:33:00,35.3,28.0,30.41,ESE,113,3.0,4.0,75,0.00,,,0.00,weatherlink.com 1.10,2013-03-09 15:33:00,
2013-03-09 10:48:00,36.2,28.0,30.40,ESE,113,4.0,4.0,71,0.00,,,0.00,weatherlink.com 1.10,2013-03-09 15:48:00,
2013-03-09 11:03:00,37.3,28.0,30.40,East,98,3.0,4.0,69,0.00,,,0.00,weatherlink.com 1.10,2013-03-09 16:03:00,
2013-03-09 11:18:00,38.6,28.0,30.39,ESE,105,4.0,5.0,65,0.00,,,0.00,weatherlink.com 1.10,2013-03-09 16:18:00,
2013-03-09 11:33:00,39.6,27.0,30.39,SE,127,2.0,5.0,61,0.00,,,0.00,weatherlink.com 1.10,2013-03-09 16:33:00,
2013-03-09 11:48:00,40.4,27.0,30.39,SE,133,1.0,3.0,60,0.00,,,0.00,weatherlink.com 1.10,2013-03-09 16:48:00,
2013-03-09 12:03:00,42.4,28.0,30.38,SE,134,0.0,1.0,58,0.00,,,0.00,weatherlink.com 1.10,2013-03-09 17:03:00,
2013-03-09 12:18:00,43.6,30.0,30.37,SE,138,2.0,3.0,58,0.00,,,0.00,weatherlink.com 1.10,2013-03-09 17:18:00,
2013-03-09 12:33:00,44.4,29.0,30.37,SSE,163,0.0,1.0,54,0.00,,,0.00,weatherlink.com 1.10,2013-03-09 17:33:00,
2013-03-09 12:48:00,45.2,28.0,30.36,WSW,248,1.0,2.0,52,0.00,,,0.00,weatherlink.com 1.10,2013-03-09 17:48:00,
2013-03-09 13:03:00,46.1,28.0,30.35,SW,214,1.0,1.0,50,0.00,,,0.00,weatherlink.com 1.10,2013-03-09 18:03:00,
2013-03-09 13:18:00,46.5,28.0,30.34,SW,226,1.0,2.0,48,0.00,,,0.00,weatherlink.com 1.10,2013-03-09 18:18:00,
2013-03-09 13:33:00,48.1,28.0,30.33,SE,129,0.0,0.0,46,0.00,,,0.00,weatherlink.com 1.10,2013-03-09 18:33:00,
2013-03-09 13:48:00,48.9,28.0,30.33,SE,133,0.0,1.0,44,0.00,,,0.00,weatherlink.com 1.10,2013-03-09 18:48:00,
2013-03-09 14:04:00,47.4,27.0,30.32,East,101,5.0,5.0,46,0.00,,,0.00,weatherlink.com 1.10,2013-03-09 19:04:00,
2013-03-09 14:19:00,47.6,27.0,30.31,ESE,115,2.0,4.0,45,0.00,,,0.00,weatherlink.com 1.10,2013-03-09 19:19:00,
2013-03-09 14:34:00,48.0,27.0,30.31,SE,127,0.0,1.0,44,0.00,,,0.00,weatherlink.com 1.10,2013-03-09 19:34:00,
2013-03-09 14:49:00,48.9,28.0,30.30,ESE,110,4.0,5.0,44,0.00,,,0.00,weatherlink.com 1.10,2013-03-09 19:49:00,
2013-03-09 15:05:00,49.9,27.0,30.29,East,86,4.0,5.0,41,0.00,,,0.00,weatherlink.com 1.10,2013-03-09 20:05:00,
2013-03-09 15:19:00,49.5,27.0,30.28,ESE,108,4.0,6.0,42,0.00,,,0.00,weatherlink.com 1.10,2013-03-09 20:19:00,
2013-03-09 15:34:00,50.4,27.0,30.28,East,93,4.0,5.0,40,0.00,,,0.00,weatherlink.com 1.10,2013-03-09 20:34:00,
2013-03-09 15:49:00,50.1,29.0,30.27,East,85,4.0,6.0,44,0.00,,,0.00,weatherlink.com 1.10,2013-03-09 20:49:00,
2013-03-09 16:04:00,50.6,27.0,30.27,East,98,4.0,7.0,40,0.00,,,0.00,weatherlink.com 1.10,2013-03-09 21:04:00,
2013-03-09 16:19:00,51.2,27.0,30.26,East,91,3.0,6.0,39,0.00,,,0.00,weatherlink.com 1.10,2013-03-09 21:19:00,
2013-03-09 16:34:00,51.9,26.0,30.26,ESE,108,3.0,3.0,36,0.00,,,0.00,weatherlink.com 1.10,2013-03-09 21:34:00,
2013-03-09 16:49:00,52.3,27.0,30.26,ESE,120,2.0,5.0,37,0.00,,,0.00,weatherlink.com 1.10,2013-03-09 21:49:00,
2013-03-09 17:04:00,52.0,26.0,30.25,ESE,106,2.0,4.0,36,0.00,,,0.00,weatherlink.com 1.10,2013-03-09 22:04:00,
2013-03-09 17:19:00,49.7,28.0,30.25,East,96,2.0,3.0,43,0.00,,,0.00,weatherlink.com 1.10,2013-03-09 22:19:00,
2013-03-09 17:34:00,49.7,28.0,30.25,East,94,2.0,2.0,43,0.00,,,0.00,weatherlink.com 1.10,2013-03-09 22:34:00,
2013-03-09 17:49:00,48.6,29.0,30.25,East,101,1.0,2.0,47,0.00,,,0.00,weatherlink.com 1.10,2013-03-09 22:49:00,
2013-03-09 18:04:00,48.0,28.0,30.25,East,96,3.0,3.0,47,0.00,,,0.00,weatherlink.com 1.10,2013-03-09 23:04:00,
2013-03-09 18:19:00,46.5,30.0,30.25,East,82,2.0,4.0,53,0.00,,,0.00,weatherlink.com 1.10,2013-03-09 23:19:00,
2013-03-09 18:34:00,44.8,32.0,30.24,East,98,5.0,5.0,61,0.00,,,0.00,weatherlink.com 1.10,2013-03-09 23:34:00,
2013-03-09 18:49:00,43.2,31.0,30.24,East,92,4.0,4.0,63,0.00,,,0.00,weatherlink.com 1.10,2013-03-09 23:49:00,
2013-03-09 19:04:00,42.9,31.0,30.24,East,94,3.0,3.0,62,0.00,,,0.00,weatherlink.com 1.10,2013-03-10 00:04:00,
2013-03-09 19:19:00,42.2,31.0,30.24,East,98,1.0,4.0,64,0.00,,,0.00,weatherlink.com 1.10,2013-03-10 00:19:00,
2013-03-09 19:34:00,40.8,31.0,30.25,East,92,3.0,3.0,69,0.00,,,0.00,weatherlink.com 1.10,2013-03-10 00:34:00,
2013-03-09 19:49:00,40.0,32.0,30.24,East,98,5.0,6.0,72,0.00,,,0.00,weatherlink.com 1.10,2013-03-10 00:49:00,
2013-03-09 20:04:00,39.9,32.0,30.24,East,96,1.0,5.0,72,0.00,,,0.00,weatherlink.com 1.10,2013-03-10 01:04:00,
2013-03-09 20:19:00,38.5,32.0,30.24,East,101,3.0,3.0,77,0.00,,,0.00,weatherlink.com 1.10,2013-03-10 01:19:00,
2013-03-09 20:34:00,37.6,31.0,30.23,East,89,1.0,4.0,78,0.00,,,0.00,weatherlink.com 1.10,2013-03-10 01:34:00,
2013-03-09 20:49:00,39.0,31.0,30.23,ENE,75,2.0,4.0,73,0.00,,,0.00,weatherlink.com 1.10,2013-03-10 01:49:00,
2013-03-09 21:04:00,38.7,31.0,30.23,ESE,111,0.0,2.0,73,0.00,,,0.00,weatherlink.com 1.10,2013-03-10 02:04:00,
2013-03-09 21:19:00,37.8,31.0,30.23,SE,136,1.0,3.0,77,0.00,,,0.00,weatherlink.com 1.10,2013-03-10 02:19:00,
2013-03-09 21:34:00,36.9,31.0,30.24,East,99,1.0,3.0,80,0.00,,,0.00,weatherlink.com 1.10,2013-03-10 02:34:00,
2013-03-09 21:49:00,36.6,31.0,30.23,ESE,114,3.0,3.0,80,0.00,,,0.00,weatherlink.com 1.10,2013-03-10 02:49:00,
2013-03-09 22:04:00,36.2,30.0,30.23,East,84,2.0,4.0,79,0.00,,,0.00,weatherlink.com 1.10,2013-03-10 03:04:00,
2013-03-09 22:19:00,36.2,30.0,30.22,East,79,3.0,4.0,79,0.00,,,0.00,weatherlink.com 1.10,2013-03-10 03:19:00,
2013-03-09 22:34:00,35.9,30.0,30.22,East,89,3.0,7.0,79,0.00,,,0.00,weatherlink.com 1.10,2013-03-10 03:34:00,
2013-03-09 22:49:00,35.3,30.0,30.21,East,79,0.0,3.0,81,0.00,,,0.00,weatherlink.com 1.10,2013-03-10 03:49:00,
2013-03-09 23:04:00,35.0,29.0,30.22,ENE,74,3.0,4.0,80,0.00,,,0.00,weatherlink.com 1.10,2013-03-10 04:04:00,
2013-03-09 23:19:00,34.5,29.0,30.21,ESE,108,0.0,3.0,81,0.00,,,0.00,weatherlink.com 1.10,2013-03-10 04:19:00,
2013-03-09 23:34:00,34.2,29.0,30.21,East,101,0.0,1.0,82,0.00,,,0.00,weatherlink.com 1.10,2013-03-10 04:34:00,
2013-03-09 23:49:00,34.2,29.0,30.21,East,101,0.0,0.0,82,0.00,,,0.00,weatherlink.com 1.10,2013-03-10 04:49:00,